Regional Weather Roundup
Issued by NWS

Home | Current Version | Previous Version | Graphics & Text | Print | Product List | Glossary On
Versions: 1 2 3 4 5 6 7 8 9 10 11 12 13 14 15 16 17 18 19 20 21 22 23 24 25 26 27 28
000
ASUS45 KBOI 291010
RWRID
WEATHER ROUNDUP FOR IDAHO
NATIONAL WEATHER SERVICE BOISE ID
400 AM MDT WED OCT 29 2014

NOTE: "FAIR" INDICATES FEW OR NO CLOUDS BELOW 12000 FEET
WITH NO SIGNIFICANT WEATHER AND/OR OBSTRUCTIONS TO VISIBILITY

IDZ012-014-291100-
SOUTHWEST IDAHO


CITY           SKY/WX    TMP DP  RH WIND       PRES   REMARKS
BOISE          PTCLDY    50  34  54 SE9       30.14R
CALDWELL       CLOUDY    46  30  53 MISG      30.17R
MOUNTAIN HOME  CLOUDY    46  26  45 E13       30.16R
$$

IDZ016-017-291100-
SOUTHCENTRAL IDAHO


CITY           SKY/WX    TMP DP  RH WIND       PRES   REMARKS
BURLEY         PTCLDY    37  22  54 CALM      30.18S
JEROME         CLOUDY    38  24  57 NE12      30.19S WCI  30
TWIN FALLS     MOCLDY    50  22  33 S12       30.17S
$$

IDZ019>023-291100-
SOUTHEAST IDAHO


CITY           SKY/WX    TMP DP  RH WIND       PRES   REMARKS
IDAHO FALLS    CLEAR     26  21  81 CALM      30.21F
POCATELLO      CLEAR     28  21  75 N8        30.21F WCI  20
REXBURG        CLEAR     26  21  81 NE7       30.22F WCI  18
$$

IDZ006-010-011-018-031-032-291100-
CENTRAL IDAHO MOUNTAINS


CITY           SKY/WX    TMP DP  RH WIND       PRES   REMARKS
MCCALL         CLOUDY    38  36  92 CALM      30.15R
HAILEY         CLOUDY    36  25  64 NW9       30.24F WCI  29
STANLEY          N/A     39  34  82 SE6       30.21F WCI  35
SALMON         MOCLDY    37  30  75 CALM      30.13F
CHALLIS        MOCLDY    36  26  67 S5        30.17S WCI  32
$$

IDZ002-004-006-007-026-291100-
NORTHERN IDAHO


CITY           SKY/WX    TMP DP  RH WIND       PRES   REMARKS
LEWISTON       CLOUDY    49  46  90 NE3       30.07R
LOWELL           N/A     47  46  97 CALM      30.14R
COEUR D`ALENE  CLOUDY    45  43  93 N8        30.02R
MULLAN PASS    CLOUDY    36  36 100 SW9G20    30.04S WCI  29
$$



USA.gov is the U.S. government's official web portal to all federal, state and local government web resources and services.